Location: Peterborough
(44.3091°N, 78.3197°W)
Time: 19:03:36
(UTC-04:00)

Explorer 11/Cluster Stage 4 - Pass Details

Date: 26 March 2023
Orbit: 466 x 1237 km, 28.8° (Epoch: 06 June)

Event Time Altitude Azimuth Distance (km) Brightness Sun altitude
Rises 10:50:35 0° 243° (WSW) 3,157 9.5 36.7°
Reaches altitude 10° 10:53:53 10° 221° (SW) 2,395 9.2 37.2°
Maximum altitude 10:57:08 15° 186° (S) 2,184 9.5 37.6°
Drops below altitude 10° 11:00:45 10° 152° (SSE) 2,712 10.5 38.1°
Sets 11:04:52 0° 132° (SE) 3,829 11.0 38.6°
